STARLINK-34298, 64269

Orbit data source: Space-Track

STARLINK-34298, 64269 is a payload satellite owned by SpaceX/Seattle (US) in LEO that was launched on Wed, 04 Jun 2025 UTC via an FALCON 9 launch vehicle from the Air Force Western Test Range (AFWTR). Payload-class satellites include a variety of spacecraft equipped with specific instruments for various scientific and technological missions. These include communications satellites like Starlink; space stations such as the ISS; scientific satellites like the Hubble; Earth observation satellites from companies like Planet Labs, Umbra, and HawkEye 360; GPS; miniature CubeSats for education and research; and military/defense satellites.

Loading next visibility...
Identifier
64269, 2025-120P
Orbit
LEO
Country
Flag of USUS
Related business
Manufacturer
SpaceX/Seattle
Mission
Operational Commercial Communications
Bus & Motor
STARLINK V2MO, Unknown motor
Mass
575 kg wet, ~530 kg dry
Launch date (UTC)
2025-06-04 (1 year ago)
Launch vehicle
FALCON 9
Launch site
Air Force Western Test Range (AFWTR)
Object type
Payload
Rocket body
Debris
Shape & HBR
Box + 2 Pan, 17.7 m
Radar Cross Section
36.964 m², Large (>1 m²)

Expand to show TLE details & history
Last TLE update: 1 day ago

TLE from 1 day ago
0 STARLINK-34298
1 64269U 25120P   26170.79817158  .00027440  00000-0  82020-3 0  9991
2 64269  53.1598 359.2730 0001065  87.9689 272.1435 15.34403120 59492
Epoch: 2026-06-19T19:09Z
TLE epoch observation values (Epoch: 2026-06-19T19:09:22.024Z)
Latitude
-0.00007°
Longitude
163.9092°
Altitude
463.568 km
Speed
7.636 km/s
True Right ascension
23h 57m 05s
True Declination
0° 00' 00"
Sunlit
Object was in daylight at epoch
Visualization orbit readout
Latitude
Unknown
Longitude
Unknown
Altitude
Unknown
Speed
Unknown
Apparent Right ascension
Unknown
Apparent Declination
Unknown
Sunlit
N/A
Visualization observer readout
Local Sidereal Time
07:15:21
Azimuth
Unknown
Elevation
Unknown
Doppler factor
Unknown
Orbital elements
Apogee altitude
463.679 km
Perigee altitude
462.222 km
Semi-major axis
6,841.088 km
Eccentricity
0.00011
Inclination
53.1598°
RAAN
359.273°
Arg. of periapsis
87.9689°
True anomaly
272.1313°
Mean anomaly
272.1435°
Eccentric anomaly
272.1374°
Mean motion
3.8358 °/min
Orbital period
93.85 mins
BSTAR
0.0008202
Loading maneuver chart data...
Computing Atmospheric mass density...
Loading historical data...
Loading historical data...
Loading historical data...
Loading historical data...
Loading historical data...
Loading historical data...
Loading historical data...

Documentation

Showing up to 5 results
|